Regional Weather Roundup
Issued by NWS

Home | Current Version | Previous Version | Text Only | Print | Product List | Glossary Off
Versions: 1 2 3 4 5 6 7 8 9 10 11 12 13 14 15 16 17 18 19 20 21 22 23 24 25 26 27 28 29 30 31 32 33 34 35 36 37 38 39 40 41 42 43 44 45 46 47 48 49 50

000
ASUS43 KMKX 201811
RWRWI

WISCONSIN REGIONAL WEATHER ROUNDUP
NATIONAL WEATHER SERVICE MILWAUKEE/SULLIVAN WI
100 PM CDT WED AUG 20 2014

NOTE: "FAIR" INDICATES FEW OR NO CLOUDS BELOW 12,000 FEET WITH NO
SIGNIFICANT WEATHER AND/OR OBSTRUCTIONS TO VISIBILITY.

WIZ001-002-006>008-014>016-023>028-201900-
NORTHWEST WISCONSIN

CITY           SKY/WX    TMP DP  RH WIND       PRES   REMARKS
SUPERIOR ARPT  CLOUDY    69  62  79 S3        29.89F
6HR MIN TEMP:  61; 6HR MAX TEMP:  69;

ASHLAND        CLOUDY    69  60  73 VRB3      29.91S
6HR MIN TEMP:  60; 6HR MAX TEMP:  69;

HAYWARD        CLOUDY    68  58  70 CALM      29.91F
6HR MIN TEMP:  60; 6HR MAX TEMP:  68;

SIREN          CLOUDY    72  60  65 E3        29.88S
6HR MIN TEMP:  60; 6HR MAX TEMP:  73; 6HR PCP:  0.01;

RICE LAKE      CLOUDY    71  58  65 CALM      29.91R
6HR MIN TEMP:  59; 6HR MAX TEMP:  72;

LADYSMITH      CLOUDY    70  59  68 N5        29.92F
6HR MIN TEMP:  60; 6HR MAX TEMP:  70;

EAU CLAIRE     PTSUNNY   72  61  68 CALM      29.89F
6HR MIN TEMP:  60; 6HR MAX TEMP:  75;

MENOMONIE      PTCLDY    74  61  63 SE6       29.89F
6HR MIN TEMP:  62; 6HR MAX TEMP:  75;

NEW RICHMOND   MOSUNNY   74  62  65 E7        29.88F
6HR MIN TEMP:  59; 6HR MAX TEMP:  75;

OSCEOLA        MOSUNNY   75  63  66 E6        29.90F
6HR MIN TEMP:  59; 6HR MAX TEMP:  75;

$$

WIZ003>005-009-010-017-018-201900-
NORTH CENTRAL WISCONSIN

CITY           SKY/WX    TMP DP  RH WIND       PRES   REMARKS
WOODRUFF       CLOUDY    71  62  72 SW5       29.93R
6HR MIN TEMP:  59; 6HR MAX TEMP:  72;

RHINELANDER    CLOUDY    66  58  75 W7        29.94R
6HR MIN TEMP:  59; 6HR MAX TEMP:  67;

EAGLE RIVER    CLOUDY    66  57  72 CALM      29.92R
6HR MIN TEMP:  57; 6HR MAX TEMP:  67;

LAND O LAKES   CLOUDY    67  58  73 CALM      29.93R
6HR MIN TEMP:  57; 6HR MAX TEMP:  68;

PHILLIPS       CLOUDY    67  60  78 NW3       29.91S
6HR MIN TEMP:  58; 6HR MAX TEMP:  67;

TOMAHAWK       CLOUDY    67  59  73 N5        29.92F
6HR MIN TEMP:  58; 6HR MAX TEMP:  67;

MEDFORD        CLOUDY    67  60  76 N3        29.91F
6HR MIN TEMP:  58; 6HR MAX TEMP:  67;

MERRILL        CLOUDY    68  60  77 CALM      29.92R
6HR MIN TEMP:  59; 6HR MAX TEMP:  68;

$$

WIZ029-030-035-036-043>047-201900-
CENTRAL WISCONSIN

CITY           SKY/WX    TMP DP  RH WIND       PRES   REMARKS
WAUSAU         CLOUDY    67  60  78 S3        29.90R
6HR MIN TEMP:  60; 6HR MAX TEMP:  68; 6HR PCP: TRACE;

MOSINEE        CLOUDY    66  63  88 CALM      29.93R
MARSHFIELD     CLOUDY    68  60  75 CALM      29.91F
6HR MIN TEMP:  60; 6HR MAX TEMP:  69;

STEVENS POINT  CLOUDY    65  59  79 W5        29.93
6HR MIN TEMP:  58; 6HR MAX TEMP:  66; 6HR PCP:  0.10;

WAUPACA        PTSUNNY   72  62  69 NW3       29.91S
6HR MIN TEMP:  64; 6HR MAX TEMP:  73; 6HR PCP:  0.03;

WAUTOMA        PTSUNNY   78  64  61 NW7       29.89F HX  80
6HR MIN TEMP:  62; 6HR MAX TEMP:  80;

WISC RAPIDS    MOSUNNY   74  61  63 N5        29.91F
6HR MIN TEMP:  61; 6HR MAX TEMP:  74;

CAMP DOUGLAS   MOSUNNY   79  68  69 VRB7      29.88F HX  81
$$

WIZ011>013-019>022-031-037>040-048>050-201900-
NORTHEAST WISCONSIN

CITY           SKY/WX    TMP DP  RH WIND       PRES   REMARKS
ANTIGO         CLOUDY    68  60  77 NW3       29.92S
6HR MIN TEMP:  58; 6HR MAX TEMP:  68;

STURGEON BAY   CLOUDY    66  61  82 W3        29.90R
6HR MIN TEMP:  63; 6HR MAX TEMP:  66;

GREEN BAY      CLOUDY    69  62  78 NW5       29.90R
6HR MIN TEMP:  62; 6HR MAX TEMP:  69;

MANITOWOC      CLOUDY    71  63  75 N5        29.90R
6HR MIN TEMP:  63; 6HR MAX TEMP:  72;

APPLETON       PTSUNNY   70  61  73 NW6       29.91R
CLINTONVILLE   CLOUDY    68  59  73 NW3       29.90S
OSHKOSH        MOSUNNY   75  64  68 VRB5      29.89S
6HR MIN TEMP:  62; 6HR MAX TEMP:  76;

$$

WIZ032>034-041-042-053>061-201900-
SOUTHWEST WISCONSIN

CITY           SKY/WX    TMP DP  RH WIND       PRES   REMARKS
LA CROSSE      SUNNY     81  65  58 E6        29.86F HX  83
6HR MIN TEMP:  64; 6HR MAX TEMP:  81;

SPARTA         SUNNY     79  62  55 W5        29.88F HX  80
6HR MIN TEMP:  59; 6HR MAX TEMP:  79;

VIROQUA        FAIR      80  64  56 W5        29.89F HX  82
6HR MIN TEMP:  61; 6HR MAX TEMP:  80;

BOSCOBEL       SUNNY     85  66  53 SW8       29.87F HX  87
6HR MIN TEMP:  63; 6HR MAX TEMP:  85;

PRAIRIE DU CHI SUNNY     82  64  53 SW8       29.86F HX  84
6HR MIN TEMP:  62; 6HR MAX TEMP:  83;

PLATTEVILLE    FAIR      80  68  66 SW10      29.91F HX  83
6HR MIN TEMP:  63; 6HR MAX TEMP:  81;

$$

WIZ056-057-062-063-064-067-068-201900-
SOUTH CENTRAL WISCONSIN

CITY           SKY/WX    TMP DP  RH WIND       PRES   REMARKS
BARABOO/DELLS  PTSUNNY   81  62  51 NW6       29.89S HX  82
6HR MIN TEMP:  61; 6HR MAX TEMP:  83;

LONE ROCK      MOSUNNY   87  65  47 W7        29.87F HX  89
6HR MIN TEMP:  66; 6HR MAX TEMP:  89;

WATERTOWN      PTSUNNY   80  67  64 NW8       29.89S HX  82
6HR MIN TEMP:  62; 6HR MAX TEMP:  80;

MADISON        PTSUNNY   82  64  54 W7        29.88F HX  83
6HR MIN TEMP:  63; 6HR MAX TEMP:  84;

MIDDLETON      FAIR      84  62  46 SW9       29.89F HX  85
6HR MIN TEMP:  60; 6HR MAX TEMP:  84;

MONROE         PTSUNNY   81  66  61 W10       29.90F HX  83
JANESVILLE     MOSUNNY   84  63  48 W12G20    29.89S HX  85
$$

WIZ051-052-058>065-066-070>072-201900-
SOUTHEAST WISCONSIN

CITY           SKY/WX    TMP DP  RH WIND       PRES   REMARKS
MILWAUKEE      PTSUNNY   76  65  68 SE6       29.90R
WAUKESHA       PTSUNNY   79  64  61 W8        29.91R HX  81
MILWAUKEE/TIMM MOSUNNY   79  61  53 W9        29.89R HX  80
RACINE         PTSUNNY   77  65  66 SE7       29.92R
6HR MIN TEMP:  66; 6HR MAX TEMP:  82;

BURLINGTON     MOSUNNY   79  64  60 W7        29.90R HX  81
6HR MIN TEMP:  60; 6HR MAX TEMP:  80;

KENOSHA        PTSUNNY   80  65  59 SW12      29.90R HX  82
6HR MIN TEMP:  63; 6HR MAX TEMP:  82;

FOND DU LAC    PTSUNNY   75  65  70 NE7       29.90R
6HR MIN TEMP:  62; 6HR MAX TEMP:  76;

SHEBOYGAN      PTSUNNY   76  63  64 NW8       29.89R
6HR MIN TEMP:  62; 6HR MAX TEMP:  78;

WEST BEND      PTSUNNY   75  61  60 W8        29.90R
JUNEAU         MOSUNNY   77  41  27 W7        29.90F
6HR MIN TEMP:  61; 6HR MAX TEMP:  77;

$$

LSZ147-162-201900-
LAKE SUPERIOR

STATION/POSITION TIME  TEMP    WIND        PRES    WAVE
                       AIR SEA DIR/SP/G            HT/PER
                 (UTC) (F)     (DEG/KT/KT) (MB)    (FT/S)
W MID LAKE BUOY  1750   59 57   30/  6/  6 1012.2F   1
DEVILS ISLAND    1800   65     230/  5/  7 1012.6R
PORT WING        1700   65     300/  5/  6 1012.5
SAXON HARBOR     1700   66        CALM     1012.9
$$

LMZ867-665-643>646-201900-
LAKE MICHIGAN

STATION/POSITION TIME  TEMP    WIND        PRES    WAVE
                       AIR SEA DIR/SP/G            HT/PER
                 (UTC) (F)     (DEG/KT/KT) (MB)    (FT/S)
N MID LAKE BUOY  1750   62 62  290/  6/  8 1011.0R   1/ 4
NORTHPORT PIER   1700   64     280/  2/  5 1011.5R
SISTER BAY       1726   69        CALM       N/A
KEWAUNEE LAKESHO 1700   67     320/  5/  6 1011.3R
SHEBOYGAN LAKESH 1800   66 65  120/  6/  7 1012.6R
ATWATER BUOY     1800   69     130/  8/ 10 1013.6R
MILWAUKEE LAKESH 1700   69     110/  4/  5   N/A
S MID LAKE BUOY  1750   69 70  190/  4/  4 1013.0R   0
KENOSHA   LAKESH 1800   76     120/  9/ 12 1011.9R
$$

TC  - TEMPERATURE IN CELSIUS
VSB - VISIBILITY IN STATUTE MILES
WCI - WIND CHILL INDEX
HX  - HEAT INDEX



USA.gov is the U.S. government's official web portal to all federal, state and local government web resources and services.